Location: Unspecified
(0.0000°N, 0.0000°E)
Time: 03:50:57
(UTC+00:00)

STARLINK-1063 - Pass Details

Date: 23 January 2020
Orbit: 548 x 551 km, 53.0° (Epoch: 02 December)

Event Time Altitude Azimuth Distance (km) Brightness Sun altitude
Exits shadow 05:29:23 12° 273° (W) 1,694 5.5 -9.9°
Maximum altitude 05:31:21 16° 305° (NW) 1,485 5.2 -9.5°
Drops below altitude 10° 05:33:57 10° 343° (NNW) 1,831 5.9 -8.9°
Sets 05:36:54 0° 6° (N) 2,722 7.0 -8.2°
